7 * 24
多渠道服务支持
STARLINK-37254(NORAD编号68553)是美国太空探索技术公司(SpaceX)星链(Starlink)星座中的一颗低轨互联网通信卫星,属于星链项目组网卫星之一。星链计划旨在构建全球覆盖的低轨卫星互联网系统,最终计划部署超4万颗卫星,为全球提供高速低时延互联网接入服务。该卫星由SpaceX通过可重复使用的猎鹰9号火箭发射入轨,运行在近地轨道,属于星链二代组网卫星范畴,工作在Ku/Ka频段,承担全球卫星互联网通信覆盖任务,截至2026年仍在轨运行,是星链星座万颗在轨卫星中的一员,支撑星链全球互联服务的正常运营。
美国
(US)
| 数据来源 | 国际轨道数据 |
| 星历时间: | 2026-07-27T08:59:43+0800 23小时前 查看轨道信息 |
| 半长轴: | 6840.794km |
| 偏心率: | 0.0001006 |
| 轨道倾角: | 53.158° |
| 近地点辐角 | 74.233° |
| 升交点赤经 | 72.932° |
| 平近点角 | 285.878° |
| 近地点: | 461.968km |
| 远地点: | 463.346km |
| 周期: | 93.847分钟 |
| 每日圈数: | 15.344158 |